Track ORBCOMM FM 29 now! 10-day predictions ORBCOMM FM 29 is classified as:
1 33062U 08031C 26228.10402082 .00000674 00000-0 10888-3 0 9998 2 33062 48.4387 103.4109 0005244 54.1877 101.6503 14.82948208977178